Time,TemperatureF,DewpointF,PressureIn,WindDirection,WindDirectionDegrees,WindSpeedMPH,WindSpeedGustMPH,Humidity,HourlyPrecipIn,Conditions,Clouds,dailyrainin,SoftwareType,DateUTC
2013-08-06 00:22:00,62.0,-99.9,29.97,SSW,203,2.0,3.0,-999,-99.99,,,-99.99,,2013-08-06 07:22:00,
2013-08-06 00:53:00,62.0,-99.9,29.97,SSE,152,1.0,3.0,-999,-99.99,,,-99.99,,2013-08-06 07:53:00,
2013-08-06 01:02:00,61.0,-99.9,29.98,South,188,2.0,3.0,-999,-99.99,,,-99.99,,2013-08-06 08:02:00,
2013-08-06 01:22:00,61.0,-99.9,29.98,SE,145,2.0,2.0,-999,-99.99,,,-99.99,,2013-08-06 08:22:00,
2013-08-06 02:01:00,60.0,-99.9,29.98,NNW,338,2.0,4.0,-999,-99.99,,,-99.99,,2013-08-06 09:01:00,
2013-08-06 02:22:00,60.0,-99.9,29.98,NW,322,2.0,3.0,-999,-99.99,,,-99.99,,2013-08-06 09:22:00,
2013-08-06 03:02:00,60.0,-99.9,29.98,South,170,2.0,3.0,-999,-99.99,,,-99.99,,2013-08-06 10:02:00,
2013-08-06 04:02:00,60.0,-99.9,29.98,South,184,2.0,3.0,-999,-99.99,,,-99.99,,2013-08-06 11:02:00,
2013-08-06 04:32:00,59.0,-99.9,29.98,South,186,2.0,3.0,-999,-99.99,,,-99.99,,2013-08-06 11:32:00,
2013-08-06 04:43:00,58.0,-99.9,29.98,WNW,293,6.0,7.0,-999,-99.99,,,-99.99,,2013-08-06 11:43:00,
2013-08-06 05:02:00,58.0,-99.9,29.98,West,267,2.0,4.0,-999,-99.99,,,-99.99,,2013-08-06 12:02:00,
2013-08-06 05:22:00,58.0,-99.9,29.98,West,275,5.0,5.0,-999,-99.99,,,-99.99,,2013-08-06 12:22:00,
2013-08-06 05:43:00,57.0,-99.9,29.99,WSW,248,8.0,8.0,-999,-99.99,,,-99.99,,2013-08-06 12:43:00,
2013-08-06 05:52:00,57.0,-99.9,29.99,WSW,251,6.0,8.0,-999,-99.99,,,-99.99,,2013-08-06 12:52:00,
2013-08-06 06:02:00,57.0,-99.9,29.99,SW,235,3.0,4.0,-999,-99.99,,,-99.99,,2013-08-06 13:02:00,
2013-08-06 06:22:00,57.0,-99.9,29.99,ESE,120,3.0,3.0,-999,-99.99,,,-99.99,,2013-08-06 13:22:00,
2013-08-06 06:42:00,58.0,-99.9,29.99,South,186,2.0,2.0,-999,-99.99,,,-99.99,,2013-08-06 13:42:00,
2013-08-06 07:11:00,57.0,-99.9,30.00,NW,310,4.0,5.0,-999,-99.99,,,-99.99,,2013-08-06 14:11:00,
2013-08-06 07:22:00,57.0,-99.9,30.01,NW,306,4.0,5.0,-999,-99.99,,,-99.99,,2013-08-06 14:22:00,
2013-08-06 07:53:00,57.0,-99.9,30.02,West,274,3.0,4.0,-999,-99.99,,,-99.99,,2013-08-06 14:53:00,
2013-08-06 08:33:00,57.0,-99.9,30.02,WNW,296,3.0,4.0,-999,-99.99,,,-99.99,,2013-08-06 15:33:00,
2013-08-06 08:44:00,57.0,-99.9,30.02,WNW,295,4.0,5.0,-999,-99.99,,,-99.99,,2013-08-06 15:44:00,
2013-08-06 08:52:00,57.0,-99.9,30.02,WNW,300,6.0,6.0,-999,-99.99,,,-99.99,,2013-08-06 15:52:00,
2013-08-06 09:02:00,57.0,-99.9,30.02,NW,325,3.0,6.0,-999,-99.99,,,-99.99,,2013-08-06 16:02:00,
2013-08-06 10:02:00,59.0,-99.9,30.03,NW,307,1.0,2.0,-999,-99.99,,,-99.99,,2013-08-06 17:02:00,
2013-08-06 10:22:00,59.0,-99.9,30.03,NW,322,4.0,5.0,-999,-99.99,,,-99.99,,2013-08-06 17:22:00,
2013-08-06 10:44:00,59.0,-99.9,30.02,NNW,336,1.0,4.0,-999,-99.99,,,-99.99,,2013-08-06 17:44:00,
2013-08-06 11:02:00,59.0,-99.9,30.02,NNW,331,2.0,4.0,-999,-99.99,,,-99.99,,2013-08-06 18:02:00,
2013-08-06 11:22:00,59.0,-99.9,30.02,NW,321,4.0,6.0,-999,-99.99,,,-99.99,,2013-08-06 18:22:00,
2013-08-06 13:01:00,62.0,-99.9,30.01,NW,323,2.0,3.0,-999,-99.99,,,-99.99,,2013-08-06 20:01:00,
2013-08-06 18:43:00,73.0,-99.9,29.93,SW,219,1.0,2.0,-999,-99.99,,,-99.99,,2013-08-07 01:43:00,
2013-08-06 19:02:00,71.0,-99.9,29.93,South,172,0.0,3.0,-999,-99.99,,,-99.99,,2013-08-07 02:02:00,
2013-08-06 19:43:00,76.0,-99.9,29.92,NW,317,1.0,7.0,-999,-99.99,,,-99.99,,2013-08-07 02:43:00,
2013-08-06 19:53:00,73.0,-99.9,29.92,NW,317,8.0,11.0,-999,-99.99,,,-99.99,,2013-08-07 02:53:00,
2013-08-06 20:32:00,77.0,-99.9,29.92,ESE,102,1.0,2.0,-999,-99.99,,,-99.99,,2013-08-07 03:32:00,
2013-08-06 20:43:00,72.0,-99.9,29.93,NNW,331,3.0,4.0,-999,-99.99,,,-99.99,,2013-08-07 03:43:00,
2013-08-06 21:01:00,73.0,-99.9,29.93,NNE,21,3.0,6.0,-999,-99.99,,,-99.99,,2013-08-07 04:01:00,
2013-08-06 21:33:00,73.0,-99.9,29.94,NNE,22,1.0,4.0,-999,-99.99,,,-99.99,,2013-08-07 04:33:00,
2013-08-06 21:43:00,71.0,-99.9,29.94,NNW,339,3.0,5.0,-999,-99.99,,,-99.99,,2013-08-07 04:43:00,
2013-08-06 21:52:00,71.0,-99.9,29.94,NNW,335,4.0,6.0,-999,-99.99,,,-99.99,,2013-08-07 04:52:00,
2013-08-06 22:02:00,70.0,-99.9,29.94,NW,320,2.0,5.0,-999,-99.99,,,-99.99,,2013-08-07 05:02:00,
2013-08-06 22:32:00,69.0,-99.9,29.95,NNW,347,2.0,4.0,-999,-99.99,,,-99.99,,2013-08-07 05:32:00,
2013-08-06 22:43:00,68.0,-99.9,29.95,NW,312,5.0,8.0,-999,-99.99,,,-99.99,,2013-08-07 05:43:00,
2013-08-06 23:02:00,68.0,-99.9,29.95,NNW,339,2.0,5.0,-999,-99.99,,,-99.99,,2013-08-07 06:02:00,